EWR304 FMCZ-FMCH

Flight info

Callsign EWR304
Flight time N/A
Altitude 16000
Route ANJON AJ1K
Aircraft AT76/M-SDFGIRY/S

Departure

Time 2026-04-21 02:25
Airport Dzaoudzi Pamandzi International Airport (FMCZ)

Arrival

Time N/A
Airport Prince Said Ibrahim International Airport (FMCH)
Time Latitude Longitude Altitude Speed Heading
2026-04-21 02:13 -12.80261 45.28162 44 ft 0 kts 60°
2026-04-21 02:20 -12.80261 45.28163 44 ft 1 kts 60°
2026-04-21 02:20 -12.80257 45.28178 44 ft 2 kts 97°
2026-04-21 02:21 -12.80268 45.28184 44 ft 2 kts 169°
2026-04-21 02:21 -12.80275 45.28179 44 ft 1 kts 230°
2026-04-21 02:21 -12.80275 45.28165 44 ft 6 kts 280°
2026-04-21 02:21 -12.80280 45.28130 44 ft 6 kts 240°
2026-04-21 02:22 -12.80295 45.28118 43 ft 0 kts 196°
2026-04-21 02:22 -12.80315 45.28123 43 ft 7 kts 168°
2026-04-21 02:22 -12.80345 45.28119 42 ft 6 kts 199°
2026-04-21 02:22 -12.80391 45.28084 43 ft 5 kts 241°
2026-04-21 02:23 -12.80422 45.28032 43 ft 12 kts 240°
2026-04-21 02:23 -12.80445 45.27989 42 ft 11 kts 241°
2026-04-21 02:23 -12.80469 45.27951 42 ft 2 kts 213°
2026-04-21 02:23 -12.80487 45.27952 42 ft 3 kts 158°
2026-04-21 02:24 -12.80510 45.27966 42 ft 5 kts 149°
2026-04-21 02:24 -12.80590 45.28013 42 ft 39 kts 150°
2026-04-21 02:24 -12.81008 45.28259 49 ft 98 kts 151°
2026-04-21 02:24 -12.81683 45.28684 281 ft 118 kts 150°
2026-04-21 02:25 -12.82063 45.28943 577 ft 119 kts 148°
2026-04-21 02:25 -12.82455 45.29227 842 ft 124 kts 143°